Flag for Canada Weather past 2 weeks in Quispamsis, New Brunswick, Canada

Now
36 °F

Partly sunny.


Feels Like: 26 °F
Forecast: 25 / 35 °F
Wind: 15 mph from West

Location: Saint John

Current Time: Mar 4, 2015 at 3:02:56 PM

Latest Report: Mar 4, 2015 at 2:00 PM


Visibility: 15 mi

Pressure: 29.59 "Hg

Humidity: 70%

Dew point: 27 °F

Location of QuispamsisLocation

Historic Weather in Quispamsis — Graph

°F

Quispamsis temperature yesterday

Maximum temperature yesterday: 21 °F (at 4:00 PM)
Minimum temperature yesterday: -2 °F (at 9:00 PM)
Average temperature yesterday: 10 °F

Past Weeks' High & Low Weather Summary

 TemperatureHumidityPressure
High39 °F (Mar 4, 1:00 PM)100% (Feb 22, 12:00 AM)30.67 "Hg (Feb 22, 12:00 AM)
Low-15 °F (Feb 28, 7:00 AM)27% (Mar 3, 4:00 PM)29.26 "Hg (Feb 20, 3:00 AM)
Average15 °F71%30.02 "Hg
* Reported Feb 17 1:00 PM — Mar 4 1:00 PM, Quispamsis, Weather by CustomWeather, © 2015

Note: Actual official high and low records may vary slightly from our data, if they occured in-between our weather recording intervals... More about our weather records

Advertising

Quispamsis weather history for previous 24 hours

 ConditionsComfort  
Time TempWeatherWind HumidityBarometerVisibility
1:00 PM
Wed, Mar 4
39 °FPartly sunny.16 mph56%29.58 "Hg15 mi
12:00 PM36 °FBroken clouds.12 mph75%29.57 "Hg15 mi
11:00 AM36 °FPartly sunny.12 mph81%29.56 "Hg15 mi
10:00 AM34 °FCloudy.8 mph93%29.57 "Hg15 mi
9:48 AM34 °FMostly cloudy.8 mph93%29.57 "Hg15 mi
9:00 AM34 °FMostly cloudy.9 mph93%29.54 "Hg15 mi
8:50 AM34 °FMostly cloudy.7 mph93%29.54 "Hg15 mi
8:00 AM32 °FLight snow. Mostly cloudy.14 mph100%29.55 "Hg2 mi
7:00 AM30 °FLight snow. Mostly cloudy.15 mph100%29.57 "Hg1 mi
6:00 AM30 °FLight mixture of precip. Mostly cloudy.18 mph93%29.62 "Hg1 mi
5:00 AM27 °FLight mixture of precip. Mostly cloudy.18 mph93%29.65 "Hg1 mi
4:00 AM25 °FLight snow. Low clouds.20 mph93%29.72 "Hg2 mi
3:00 AM25 °FLight snow. Low clouds.23 mph93%29.79 "Hg1 mi
2:00 AM23 °FLight snow. Mostly cloudy.23 mph93%29.91 "Hg1 mi
1:49 AM23 °FLight snow. Mostly cloudy.16 mph93%29.92 "Hg1 mi
1:00 AM23 °FLight snow. Mostly cloudy.18 mph80%29.96 "Hg2 mi
12:49 AM23 °FLight snow. Mostly cloudy.20 mph80%29.97 "Hg2 mi
12:00 AM23 °FPassing clouds.13 mph74%30.01 "Hg15 mi
11:00 PM
Tue, Mar 3
3 °FPassing clouds.No wind85%30.08 "Hg15 mi
10:00 PM-2 °FPassing clouds.2 mph84%30.12 "Hg15 mi
9:00 PM-2 °FPassing clouds.No wind84%30.16 "Hg15 mi
8:00 PM1 °FPassing clouds.No wind71%30.18 "Hg15 mi
7:00 PM5 °FPassing clouds.No wind66%30.19 "Hg15 mi
6:00 PM18 °FPartly sunny.5 mph35%30.20 "Hg15 mi
5:00 PM19 °FScattered clouds.9 mph32%30.21 "Hg15 mi
4:00 PM21 °FPassing clouds.9 mph27%30.21 "Hg15 mi
3:00 PM19 °FPassing clouds.12 mph29%30.22 "Hg15 mi
Weather by CustomWeather, © 2015

See weather overviewHow to use our weather pages